{"data":{"norad_id":34941,"epoch":"2026-09-19T20:54:28.668960Z","epoch_age_seconds":68735,"freshness":"FRESH","line1":"1 34941U 09027A   26262.87116515 -.00000349  00000+0  00000+0 0  9996","line2":"2 34941   0.0558  77.1516 0000828 163.1578 180.3552  1.00270739 63571","mean_motion":1.00270739,"eccentricity":8.28e-5,"inclination_deg":0.0558,"raan_deg":77.1516,"arg_perigee_deg":163.1578,"mean_anomaly_deg":180.3552,"bstar":0,"rev_number":6357,"period_min":1436.1118850436,"perigee_km":35783.396931424,"apogee_km":35790.379459597,"semimajor_km":42165.025195511,"source":"CELESTRAK","updated_at":"2026-09-20T09:00:35.638568Z"}}